Weather History for Air Force Academy, CO

Change the Weather History Date:

Thursday, January 9, 2014

  Actual Average Record
Temperature  
Mean Temperature 30 °F -  
Max Temperature 45 °F 42 °F 57 °F (2002)
Min Temperature 15 °F 19 °F 8 °F (2001)
Degree Days  
Heating Degree Days 35    
Moisture  
Dew Point 9 °F    
Average Humidity 35    
Maximum Humidity 84    
Minimum Humidity 20    
Precipitation  
Precipitation 0.00 in - - ()
Sea Level Pressure  
Sea Level Pressure 29.81 in    
Wind  
Wind Speed 9 mph (WNW)    
Max Wind Speed 21 mph    
Max Gust Speed 30 mph    
Visibility 10 miles    
Events      
Averages and records for this station are not official NWS values.
T = Trace of Precipitation, MM = Missing Value Source: NWS Daily Summary

Daily Weather History Graph

Daily Weather History Graph

Search for Another Location

Airport:

Trip Planner

Search our weather history database for the weather conditions in past years. The results will help you decide how hot, cold, wet, or windy it might be!

Date:

Astronomy

Jan. 09, 2014 Rise Set
Actual Time 7:18 AM MST 4:55 PM MST
Civil Twilight 6:48 AM MST 5:24 PM MST
Nautical Twilight 6:15 AM MST 5:57 PM MST
Astronomical Twilight 5:43 AM MST 6:30 PM MST
Moon 12:22 PM MST (1/9) 1:29 AM MST (1/9)
Length of Visible Light 10h 36m
Length of Day
9h 37m
Waxing Gibbous, 66% of the Moon is Illuminated
Jan 9
Waxing Gibbous
Jan 15
Full
Jan 23
Last Quarter
Jan 30
New
Feb 6
First Quarter

Hourly Weather History & Observations

Time (MST) Temp. Windchill Dew Point Humidity Pressure Visibility Wind Dir Wind Speed Gust Speed Precip Events Conditions
12:58 AM 17.4 °F 12.1 °F 12.9 °F 83% 30.07 in 10.0 mi NNW 3.5 mph - N/A   Clear
1:58 AM 15.3 °F 5.4 °F 11.3 °F 84% 30.05 in 10.0 mi Variable 6.9 mph - N/A   Clear
2:58 AM 20.5 °F 11.7 °F 11.7 °F 69% 30.01 in 10.0 mi Variable 6.9 mph - N/A   Clear
3:58 AM 21.9 °F 15.7 °F 12.0 °F 66% 30.00 in 10.0 mi Variable 4.6 mph - N/A   Clear
4:58 AM 34.9 °F 28.3 °F 11.3 °F 38% 29.89 in 10.0 mi NE 8.1 mph - N/A   Clear
5:58 AM 34.2 °F 26.2 °F 9.1 °F 35% 29.90 in 10.0 mi West 10.4 mph 20.7 mph N/A   Clear
6:18 AM 35.6 °F 26.6 °F 8.6 °F 33% 29.85 in 10.0 mi North 13.8 mph 18.4 mph N/A   Clear
6:58 AM 34.7 °F 30.6 °F 8.6 °F 34% 29.90 in 10.0 mi Variable 4.6 mph - N/A   Clear
7:58 AM 34.7 °F 29.6 °F 9.1 °F 35% 29.92 in 10.0 mi Variable 5.8 mph - N/A   Clear
8:58 AM 37.6 °F 31.6 °F 9.0 °F 31% 29.90 in 10.0 mi West 8.1 mph - N/A   Clear
9:58 AM 40.8 °F 33.7 °F 8.6 °F 27% 29.88 in 10.0 mi WSW 12.7 mph 17.3 mph N/A   Clear
10:58 AM 41.0 °F 33.9 °F 8.6 °F 26% 29.88 in 10.0 mi West 12.7 mph 27.6 mph N/A   Clear
11:58 AM 42.8 °F 35.4 °F 7.9 °F 24% 29.83 in 10.0 mi WNW 15.0 mph 26.5 mph N/A   Clear
12:44 PM 44.6 °F 37.4 °F 6.8 °F 21% 29.76 in 10.0 mi NNW 16.1 mph 27.6 mph N/A   Partly Cloudy
12:58 PM 45.1 °F 39.1 °F 5.9 °F 20% 29.80 in 10.0 mi NW 12.7 mph 21.9 mph N/A   Clear
1:49 PM 44.6 °F 37.4 °F 6.8 °F 21% 29.73 in 10.0 mi WNW 16.1 mph 25.3 mph N/A   Clear
1:52 PM 44.6 °F 36.4 °F 6.8 °F 21% 29.72 in 10.0 mi West 20.7 mph 29.9 mph N/A   Clear
1:55 PM 44.6 °F 38.1 °F 6.8 °F 21% 29.72 in 10.0 mi WSW 13.8 mph 29.9 mph N/A   Clear
1:57 PM 44.6 °F 38.1 °F 6.8 °F 21% 29.73 in 10.0 mi South 13.8 mph 29.9 mph N/A   Clear
1:58 PM 44.6 °F 39.2 °F 6.8 °F 21% 29.78 in 10.0 mi South 10.4 mph 29.9 mph N/A   Clear
2:37 PM 44.6 °F 38.4 °F 8.6 °F 23% 29.72 in 10.0 mi West 12.7 mph - N/A   Clear
2:58 PM 45.3 °F 41.1 °F 12.2 °F 26% 29.75 in 10.0 mi WSW 8.1 mph 18.4 mph N/A   Clear
4:58 PM 40.1 °F 31.6 °F 8.8 °F 28% 29.72 in 10.0 mi WNW 16.1 mph 21.9 mph N/A   Clear
5:08 PM 41.0 °F 33.9 °F 8.6 °F 26% 29.74 in 10.0 mi WSW 12.7 mph 25.3 mph N/A   Clear
5:58 PM 39.2 °F 32.5 °F 8.8 °F 29% 29.72 in 10.0 mi SW 10.4 mph 21.9 mph N/A   Clear
6:02 PM 39.2 °F 31.6 °F 8.6 °F 28% 29.73 in 10.0 mi West 12.7 mph 21.9 mph N/A   Clear
6:58 PM 37.6 °F 34.0 °F 7.7 °F 29% 29.73 in 10.0 mi Variable 4.6 mph - N/A   Clear
7:58 PM 38.5 °F 34.1 °F 9.5 °F 30% 29.73 in 10.0 mi NW 5.8 mph - N/A   Clear
8:58 PM 36.3 °F 28.0 °F 9.3 °F 33% 29.69 in 10.0 mi NNW 12.7 mph 17.3 mph N/A   Clear
9:58 PM 32.5 °F 27.1 °F 12.2 °F 43% 29.68 in 10.0 mi North 5.8 mph - N/A   Clear
10:58 PM 34.2 °F 29.0 °F 11.7 °F 39% 29.65 in 10.0 mi Variable 5.8 mph - N/A   Clear
11:58 PM 34.9 °F 29.0 °F 12.7 °F 40% 29.61 in 10.0 mi North 6.9 mph - N/A   Clear